Chilapa Escoba Tercera Seccion, Mexico

4:49 AM CST on February 23, 2017 (GMT -0600)
C P A Carlos Rovirosa International

Weather History for MMVA - October, 2012

Change the Weather History Date:

Monday, October 22, 2012

  Actual Average Record
Temperature  
Mean Temperature 83 °F -  
Max Temperature 89 °F 86 °F 95 °F (2006)
Min Temperature 77 °F 73 °F 68 °F (1999)
Cooling Degree Days 18    
Growing Degree Days 33 (Base 50)    
Moisture  
Dew Point 73 °F    
Average Humidity 76    
Maximum Humidity 94    
Minimum Humidity 55    
Precipitation  
Precipitation 0.00 in - - ()
Sea Level Pressure  
Sea Level Pressure 29.87 in    
Wind  
Wind Speed 6 mph ()    
Max Wind Speed 12 mph    
Max Gust Speed -    
Visibility 7.0 miles    
Events      
Averages and records for this station are not official NWS values.
T = Trace of Precipitation, MM = Missing Value Source: Averaged Metar Reports

Daily Weather History Graph

Daily Weather History Graph

Search for Another Location

Airport or City:

Trip Planner

Search our weather history database for the weather conditions in past years. The results will help you decide how hot, cold, wet, or windy it might be!

Date:

Astronomy

Oct. 22, 2012 Rise Set
Actual Time 7:06 AM CDT 6:44 PM CDT
Civil Twilight 6:44 AM CDT 7:06 PM CDT
Nautical Twilight 6:19 AM CDT 7:31 PM CDT
Astronomical Twilight 5:53 AM CDT 7:57 PM CDT
Moon 1:59 PM CDT (10/22) 12:52 AM CDT (10/22)
Length of Visible Light 12h 21m
Length of Day
11h 37m
First Quarter, 56% of the Moon is Illuminated
Oct 22
First Quarter
Oct 29
Full
Nov 6
Last Quarter
Nov 13
New
Nov 20
First Quarter

Hourly Weather History & Observations

Time (CDT) Temp. Heat Index Dew Point Humidity Pressure Visibility Wind Dir Wind Speed Gust Speed Precip Events Conditions
5:40 AM 77.0 °F - 73.4 °F 89% 29.87 in 7.0 mi NNW 4.6 mph - N/A   Mostly Cloudy
6:48 AM 77.0 °F - 73.4 °F 89% 29.91 in 7.0 mi NNW 4.6 mph - N/A   Mostly Cloudy
7:40 AM 77.0 °F - 73.4 °F 89% 29.87 in 7.0 mi NNW 4.6 mph - N/A   Scattered Clouds
8:43 AM 77.0 °F - 73.4 °F 89% 29.87 in 7.0 mi NNW 4.6 mph - N/A   Scattered Clouds
9:40 AM 77.0 °F - 73.4 °F 89% 29.91 in 7.0 mi ENE 8.1 mph - N/A   Scattered Clouds
10:42 AM 84.2 °F 90.9 °F 73.4 °F 70% 29.93 in 7.0 mi ENE 9.2 mph - N/A   Scattered Clouds
11:46 AM 86.0 °F 93.4 °F 73.4 °F 66% 29.92 in 7.0 mi East 10.4 mph - N/A   Scattered Clouds
12:40 PM 87.8 °F 95.6 °F 73.4 °F 62% 29.94 in 7.0 mi ESE 10.4 mph - N/A   Scattered Clouds
1:42 PM 89.6 °F 96.2 °F 71.6 °F 55% 29.87 in 7.0 mi East 9.2 mph - N/A   Scattered Clouds
2:45 PM 89.6 °F 96.2 °F 71.6 °F 55% 29.83 in 7.0 mi ENE 9.2 mph - N/A   Scattered Clouds
3:44 PM 89.6 °F 96.2 °F 71.6 °F 55% 29.81 in 7.0 mi NE 11.5 mph - N/A   Scattered Clouds
4:44 PM 87.8 °F 93.8 °F 71.6 °F 58% 29.80 in 7.0 mi NE 11.5 mph - N/A   Scattered Clouds
5:43 PM 86.0 °F 91.8 °F 71.6 °F 62% 29.81 in 7.0 mi NE 9.2 mph - N/A   Scattered Clouds
6:43 PM 84.2 °F 89.6 °F 71.6 °F 66% 29.83 in 7.0 mi NNE 4.6 mph - N/A   Scattered Clouds
7:43 PM 80.6 °F 86.2 °F 75.2 °F 84% 29.84 in 7.0 mi NNE 5.8 mph - N/A   Scattered Clouds
8:44 PM 78.8 °F - 75.2 °F 89% 29.87 in 7.0 mi Calm Calm - N/A   Scattered Clouds
9:47 PM 78.8 °F - 75.2 °F 89% 29.89 in 7.0 mi NE 5.8 mph - N/A   Scattered Clouds
10:47 PM 78.8 °F - 75.2 °F 89% 29.90 in 7.0 mi ENE 6.9 mph - N/A   Scattered Clouds
11:46 PM 77.0 °F - 75.2 °F 94% 29.89 in 7.0 mi NNE 4.6 mph - N/A   Scattered Clouds